Hudson Falls, NY

5:06 PM EDT on September 25, 2016 (GMT -0400)
Bennett Memorial

Weather History for KGFL - June, 2013

Change the Weather History Date:

Tuesday, June 11, 2013

  Actual Average Record
Temperature  
Mean Temperature 60 °F 63 °F  
Max Temperature 62 °F 76 °F 93 °F (1973)
Min Temperature 58 °F 51 °F 37 °F (1988)
Degree Days  
Heating Degree Days 5 4  
Month to date heating degree days 49 51  
Since 1 June heating degree days 49 51  
Since 1 July heating degree days 6985 7637  
Cooling Degree Days 0 2  
Month to date cooling degree days 21 15  
Year to date cooling degree days 54 27  
Since 1 June cooling degree days 21 15  
Growing Degree Days 10 (Base 50)    
Moisture  
Dew Point 58 °F    
Average Humidity 94    
Maximum Humidity 100    
Minimum Humidity 87    
Precipitation  
Precipitation 0.95 in 0.12 in 1.29 in (2001)
Month to date precipitation 3.39 1.30  
Year to date precipitation 15.32 15.79  
Sea Level Pressure  
Sea Level Pressure 29.67 in    
Wind  
Wind Speed 4 mph (NE)    
Max Wind Speed 8 mph    
Max Gust Speed 20 mph    
Visibility 4 miles    
Events Rain    
T = Trace of Precipitation, MM = Missing Value Source: NWS Daily Summary

Daily Weather History Graph

Daily Weather History Graph

Search for Another Location

Airport or City:

Trip Planner

Search our weather history database for the weather conditions in past years. The results will help you decide how hot, cold, wet, or windy it might be!

Date:

Astronomy

Jun. 11, 2013 Rise Set
Actual Time 5:13 AM EDT 8:34 PM EDT
Civil Twilight 4:38 AM EDT 9:10 PM EDT
Nautical Twilight 3:52 AM EDT 9:56 PM EDT
Astronomical Twilight 2:54 AM EDT 10:54 PM EDT
Moon 7:57 AM EDT (6/11) 10:31 PM EDT (6/11)
Length of Visible Light 16h 32m
Length of Day
15h 21m
Waxing Crescent, 8% of the Moon is Illuminated
Jun 11
Waxing Crescent
Jun 16
First Quarter
Jun 23
Full
Jun 30
Last Quarter
Jul 8
New

Hourly Weather History & Observations

Time (EDT) Temp. Dew Point Humidity Pressure Visibility Wind Dir Wind Speed Gust Speed Precip Events Conditions
12:37 AM 60.8 °F 59.0 °F 94% 29.88 in 7.0 mi NNE 6.9 mph - 0.03 in Rain Light Rain
12:53 AM 60.1 °F 59.0 °F 96% 29.87 in 5.0 mi NNE 6.9 mph - 0.04 in Rain Light Rain
1:04 AM 60.8 °F 59.0 °F 94% 29.86 in 3.0 mi NNE 6.9 mph - 0.01 in Rain Light Rain
1:53 AM 60.1 °F 57.9 °F 93% 29.84 in 6.0 mi NNE 4.6 mph - 0.09 in Rain Light Rain
2:53 AM 60.1 °F 57.9 °F 93% 29.82 in 3.0 mi NNE 5.8 mph - 0.13 in Rain Rain
3:42 AM 59.0 °F 57.2 °F 94% 29.79 in 5.0 mi NE 6.9 mph - 0.07 in Rain Rain
3:53 AM 59.0 °F 57.9 °F 96% 29.79 in 7.0 mi NE 6.9 mph - 0.08 in Rain Light Rain
4:18 AM 59.0 °F 57.2 °F 94% 29.78 in 7.0 mi NNE 6.9 mph - 0.03 in Rain Rain
4:53 AM 59.0 °F 57.0 °F 93% 29.76 in 9.0 mi NNE 6.9 mph - 0.05 in Rain Light Rain
5:53 AM 59.0 °F 57.0 °F 93% 29.73 in 4.0 mi NNE 5.8 mph - 0.02 in Rain Light Rain
6:27 AM 57.2 °F 57.2 °F 100% 29.74 in 1.8 mi NNW 4.6 mph - 0.04 in Rain Rain
6:50 AM 59.0 °F 57.2 °F 94% 29.74 in 2.0 mi North 4.6 mph - 0.08 in Rain Light Rain
6:53 AM 59.0 °F 57.0 °F 93% 29.75 in 2.0 mi North 4.6 mph - 0.08 in Rain Rain
7:12 AM 59.0 °F 57.2 °F 94% 29.74 in 1.8 mi North 3.5 mph - 0.03 in Rain Light Rain
7:27 AM 59.0 °F 57.2 °F 94% 29.74 in 2.0 mi Calm Calm - 0.05 in Rain Light Rain
7:34 AM 57.2 °F 57.2 °F 100% 29.74 in 3.0 mi Calm Calm - 0.05 in Rain Light Rain
7:48 AM 57.2 °F 57.2 °F 100% 29.74 in 2.0 mi ENE 4.6 mph - 0.05 in Rain Light Rain
7:53 AM 57.9 °F 57.0 °F 97% 29.74 in 2.0 mi ENE 3.5 mph - 0.06 in Rain Light Rain
8:06 AM 59.0 °F 57.2 °F 94% 29.74 in 3.0 mi ENE 4.6 mph - 0.00 in Rain Light Rain
8:15 AM 59.0 °F 57.2 °F 94% 29.73 in 1.8 mi ESE 3.5 mph - 0.01 in Rain Light Rain
8:44 AM 59.0 °F 57.2 °F 94% 29.73 in 2.5 mi ENE 3.5 mph - 0.04 in Rain Light Rain
8:53 AM 59.0 °F 57.0 °F 93% 29.73 in 5.0 mi ENE 3.5 mph - 0.05 in Rain Light Rain
9:45 AM 60.8 °F 57.2 °F 88% 29.71 in 6.0 mi ESE 4.6 mph - 0.04 in Rain Light Rain
9:53 AM 60.1 °F 57.0 °F 90% 29.71 in 9.0 mi SSE 3.5 mph - 0.04 in Rain Light Rain
10:17 AM 60.8 °F 57.2 °F 88% 29.70 in 2.0 mi ESE 4.6 mph - 0.02 in Rain Light Rain
10:23 AM 60.8 °F 57.2 °F 88% 29.70 in 4.0 mi ESE 5.8 mph - 0.02 in Rain Light Rain
10:53 AM 60.1 °F 57.9 °F 93% 29.69 in 3.0 mi Calm Calm - 0.02 in   Overcast
11:00 AM 60.8 °F 57.2 °F 88% 29.69 in 2.5 mi Calm Calm - N/A   Overcast
11:07 AM 60.8 °F 57.2 °F 88% 29.69 in 4.0 mi Calm Calm - N/A   Overcast
11:14 AM 60.8 °F 57.2 °F 88% 29.69 in 2.5 mi ESE 3.5 mph - N/A   Overcast
11:21 AM 60.8 °F 57.2 °F 88% 29.68 in 2.0 mi East 3.5 mph - N/A   Overcast
11:25 AM 60.8 °F 57.2 °F 88% 29.69 in 1.8 mi Calm Calm - N/A   Overcast
11:37 AM 60.8 °F 59.0 °F 94% 29.68 in 2.0 mi Calm Calm - 0.00 in Rain Light Rain
11:53 AM 60.1 °F 57.9 °F 93% 29.68 in 2.5 mi ENE 4.6 mph - 0.00 in   Overcast
12:19 PM 60.8 °F 59.0 °F 94% 29.67 in 3.0 mi Variable 3.5 mph - 0.01 in   Overcast
12:27 PM 60.8 °F 59.0 °F 94% 29.66 in 2.0 mi East 4.6 mph - 0.01 in   Overcast
12:37 PM 60.8 °F 59.0 °F 94% 29.66 in 1.8 mi East 3.5 mph - 0.01 in   Overcast
12:41 PM 60.8 °F 59.0 °F 94% 29.65 in 2.0 mi Calm Calm - 0.01 in   Overcast
12:53 PM 61.0 °F 59.0 °F 93% 29.66 in 2.0 mi East 4.6 mph - 0.01 in   Overcast
1:01 PM 60.8 °F 59.0 °F 94% 29.65 in 1.8 mi East 4.6 mph - N/A   Overcast
1:08 PM 60.8 °F 59.0 °F 94% 29.65 in 2.0 mi Calm Calm - N/A   Overcast
1:30 PM 60.8 °F 60.8 °F 100% 29.64 in 1.5 mi ENE 3.5 mph - N/A   Overcast
1:42 PM 62.6 °F 60.8 °F 94% 29.64 in 3.0 mi ENE 5.8 mph - N/A   Overcast
1:53 PM 61.0 °F 59.0 °F 93% 29.64 in 3.0 mi NE 6.9 mph - N/A   Overcast
2:11 PM 60.8 °F 59.0 °F 94% 29.62 in 2.0 mi NE 5.8 mph - 0.02 in Rain Light Rain
2:24 PM 60.8 °F 59.0 °F 94% 29.62 in 3.0 mi NE 5.8 mph - 0.03 in Rain Light Rain
2:34 PM 60.8 °F 59.0 °F 94% 29.61 in 2.0 mi NNE 6.9 mph - 0.03 in Rain Light Rain
2:50 PM 60.8 °F 59.0 °F 94% 29.62 in 1.2 mi NNE 6.9 mph - 0.09 in Rain Heavy Rain
2:53 PM 61.0 °F 59.0 °F 93% 29.62 in 1.2 mi NE 5.8 mph - 0.11 in Rain Heavy Rain
3:01 PM 60.8 °F 59.0 °F 94% 29.61 in 2.0 mi NE 6.9 mph - 0.04 in Rain Rain
3:13 PM 60.8 °F 59.0 °F 94% 29.60 in 3.0 mi NE 5.8 mph - 0.07 in Rain Light Rain
3:20 PM 60.8 °F 59.0 °F 94% 29.60 in 3.0 mi NE 4.6 mph - 0.09 in Rain Rain
3:27 PM 60.8 °F 59.0 °F 94% 29.60 in 3.0 mi NE 6.9 mph - 0.10 in Rain Rain
3:32 PM 60.8 °F 59.0 °F 94% 29.59 in 2.5 mi NNE 5.8 mph - 0.14 in Rain Heavy Rain
3:44 PM 60.8 °F 59.0 °F 94% 29.59 in 4.0 mi NNE 6.9 mph - 0.15 in Rain Light Rain
3:53 PM 61.0 °F 59.0 °F 93% 29.60 in 2.5 mi NNE 5.8 mph - 0.15 in Rain Light Rain
4:01 PM 60.8 °F 59.0 °F 94% 29.59 in 3.0 mi North 6.9 mph - 0.00 in Rain Light Rain
4:12 PM 60.8 °F 59.0 °F 94% 29.59 in 2.5 mi NNE 5.8 mph - 0.01 in   Overcast
4:44 PM 60.8 °F 59.0 °F 94% 29.58 in 4.0 mi North 3.5 mph - 0.02 in Rain Light Rain
4:53 PM 62.1 °F 60.1 °F 93% 29.58 in 10.0 mi NNE 4.6 mph - 0.02 in   Overcast
5:53 PM 61.0 °F 59.0 °F 93% 29.58 in 10.0 mi ESE 3.5 mph - N/A   Overcast
6:02 PM 60.8 °F 59.0 °F 94% 29.57 in 1.8 mi East 3.5 mph - 0.00 in Rain Light Rain
6:40 PM 60.8 °F 59.0 °F 94% 29.57 in 2.5 mi Calm Calm - 0.03 in Rain Light Rain
6:53 PM 61.0 °F 59.0 °F 93% 29.57 in 2.5 mi Calm Calm - 0.04 in   Overcast
7:02 PM 60.8 °F 59.0 °F 94% 29.57 in 8.0 mi Calm Calm - N/A   Overcast
7:53 PM 61.0 °F 59.0 °F 93% 29.58 in 10.0 mi Calm Calm - N/A   Overcast
8:53 PM 61.0 °F 59.0 °F 93% 29.59 in 10.0 mi Calm Calm - N/A   Overcast
9:15 PM 60.8 °F 59.0 °F 94% 29.59 in 10.0 mi Calm Calm - N/A   Overcast
9:53 PM 60.1 °F 57.9 °F 93% 29.61 in 10.0 mi South 4.6 mph - N/A   Overcast
10:53 PM 60.1 °F 57.0 °F 90% 29.61 in 10.0 mi SSW 4.6 mph - N/A   Overcast
11:53 PM 59.0 °F 55.9 °F 90% 29.61 in 10.0 mi WSW 4.6 mph - N/A   Overcast